GW6010 Weather Reports


time (UTC)temp
C
wind
direction
speed
KPH
gust
KPH
rain 1hr
cm
rain 24hr
cm
rain mn
cm
humidity
%
barometer
mb
20260502151521 8 43 9.7 17.7 0.00 0.00 0.00 49 1015.6
20260502123024 3 83 0.0 3.2 0.00 0.00 0.00 79 1015.3
20260502121529 3 236 0.0 4.8 0.00 0.00 0.00 81 1015.3
20260502114522 2 221 0.0 0.0 0.00 0.00 0.00 88 1015.4
20260502113024 2 139 0.0 0.0 0.00 0.00 0.00 90 1015.2
20260502111510 1 138 0.0 0.0 0.00 0.00 0.00 90 1015.1
20260502110014 1 231 0.0 0.0 0.00 0.00 0.00 89 1014.9
20260502104519 1 154 0.0 0.0 0.00 0.00 0.00 89 1015.1
20260502103025 1 170 0.0 0.0 0.00 0.00 0.00 88 1015.2
20260502101534 2 54 0.0 0.0 0.00 0.00 0.00 87 1014.9
20260502091525 2 171 1.6 3.2 0.00 0.00 0.00 84 1015.3
20260502071518 4 224 1.6 8.0 0.00 0.00 0.00 79 1015.3
20260502070022 4 283 1.6 8.0 0.00 0.00 0.00 79 1015.3
20260502064539 4 248 1.6 6.4 0.00 0.00 0.00 79 1015.1
20260502063033 4 277 1.6 6.4 0.00 0.00 0.00 78 1015.3
20260502061512 4 269 1.6 4.8 0.00 0.00 0.00 78 1015.3
20260502060006 5 319 1.6 8.0 0.00 0.00 0.00 76 1015.2
20260502054504 5 314 1.6 6.4 0.00 0.00 0.00 76 1015.5
20260502053008 6 266 3.2 9.7 0.00 0.00 0.00 76 1015.6
20260502051506 6 285 1.6 6.4 0.00 0.00 0.00 74 1015.7
20260502050014 6 265 1.6 8.0 0.00 0.00 0.00 75 1015.8
20260502044509 6 288 4.8 14.5 0.00 0.00 0.00 72 1015.9
20260502043004 6 230 1.6 12.9 0.00 0.00 0.00 72 1015.8
20260502041508 6 47 1.6 6.4 0.00 0.00 0.00 72 1015.6
20260502040007 6 114 4.8 22.5 0.00 0.00 0.00 73 1015.7
20260502034510 7 255 1.6 8.0 0.00 0.00 0.00 75 1015.7
20260502033007 7 268 1.6 11.3 0.00 0.00 0.00 76 1015.7
20260502031503 7 13 3.2 14.5 0.00 0.00 0.00 74 1015.7
20260502030008 7 265 4.8 11.3 0.00 0.00 0.00 73 1015.6
20260502024508 7 317 4.8 17.7 0.00 0.00 0.00 72 1015.5
20260502023010 7 259 6.4 12.9 0.00 0.00 0.00 71 1015.1
20260502021510 7 285 6.4 29.0 0.00 0.00 0.00 70 1015.4
20260502020008 8 111 1.6 9.7 0.00 0.00 0.00 69 1015.0
20260502014531 8 290 1.6 12.9 0.00 0.00 0.00 68 1014.7
20260502013012 8 246 4.8 14.5 0.00 0.00 0.00 68 1014.6
20260502011514 8 263 6.4 19.3 0.00 0.00 0.00 68 1014.4
20260502010015 9 265 4.8 12.9 0.00 0.00 0.00 69 1014.1
20260502004510 9 53 6.4 16.1 0.00 0.00 0.00 70 1013.8
20260502003013 10 313 4.8 16.1 0.00 0.00 0.00 72 1013.9
20260502001522 10 304 3.2 22.5 0.00 0.00 0.00 71 1013.2
20260502000015 10 127 3.2 12.9 0.00 0.00 0.00 68 1012.9
20260501234515 11 316 6.4 17.7 0.00 0.00 0.00 65 1012.5
20260501233011 11 289 3.2 20.9 0.00 0.00 0.00 63 1012.3
20260501231516 12 288 6.4 17.7 0.00 0.00 0.00 60 1012.1
20260501230017 12 303 11.3 27.4 0.00 0.00 0.00 57 1012.2
20260501224518 13 28 6.4 24.1 0.00 0.00 0.00 52 1011.8
20260501223018 14 359 6.4 20.9 0.00 0.00 0.00 48 1011.6
20260501221513 15 335 14.5 30.6 0.00 0.00 0.00 42 1011.4
20260501220017 15 293 12.9 29.0 0.00 0.00 0.00 36 1011.2
20260501214518 16 294 9.7 24.1 0.00 0.00 0.00 36 1010.9
20260501213016 17 245 17.7 35.4 0.00 0.00 0.00 33 1010.8
20260501211520 16 290 14.5 27.4 0.00 0.00 0.00 32 1011.0
20260501210021 16 300 6.4 22.5 0.00 0.00 0.00 32 1011.1
20260501204512 17 297 16.1 27.4 0.00 0.00 0.00 29 1011.1
20260501203015 17 266 9.7 20.9 0.00 0.00 0.00 29 1010.8
20260501201507 17 321 9.7 24.1 0.00 0.00 0.00 29 1010.8
20260501200011 18 207 12.9 24.1 0.00 0.00 0.00 29 1010.9
20260501194512 17 263 22.5 56.3 0.00 0.00 0.00 24 1011.0
20260501193011 17 254 14.5 37.0 0.00 0.00 0.00 26 1011.1
20260501191514 17 279 14.5 32.2 0.00 0.00 0.00 27 1011.4
20260501190006 17 261 12.9 22.5 0.00 0.00 0.00 28 1011.4
20260501184514 17 291 9.7 27.4 0.00 0.00 0.00 30 1011.4
20260501183012 16 306 11.3 30.6 0.00 0.00 0.00 28 1011.4
20260501181521 16 237 3.2 16.1 0.00 0.00 0.00 36 1011.6
20260501180013 16 259 11.3 16.1 0.00 0.00 0.00 37 1011.8
20260501174512 15 34 8.0 19.3 0.00 0.00 0.00 39 1012.0
20260501173019 15 237 4.8 17.7 0.00 0.00 0.00 45 1012.3
20260501171520 15 215 9.7 19.3 0.00 0.00 0.00 37 1012.6
20260501170021 15 269 8.0 17.7 0.00 0.00 0.00 38 1012.7
20260501164514 14 248 1.6 19.3 0.00 0.00 0.00 35 1013.0
20260501163018 14 293 8.0 17.7 0.00 0.00 0.00 31 1013.1
20260501161516 13 111 4.8 12.9 0.00 0.00 0.00 43 1013.2
20260501160019 12 125 4.8 16.1 0.00 0.00 0.00 46 1013.5